Regional Weather Roundup
Issued by NWS

Home | Current Version | Previous Version | Text Only | Print | Product List | Glossary On
Versions: 1 2 3 4 5 6 7 8 9 10 11 12 13 14 15 16 17 18 19 20 21 22 23 24 25 26 27
000
ASUS45 KBOU 180707
RWRCO

WEATHER ROUNDUP FOR COLORADO
NATIONAL WEATHER SERVICE DENVER/BOULDER CO
100 AM MDT WED OCT 18 2017

NOTE: "FAIR" INDICATES FEW OR NO CLOUDS BELOW 12000 FEET WITH NO
SIGNIFICANT WEATHER AND/OR OBSTRUCTIONS TO VISIBILITY.

COZ001>005-013-030-031-180800-
...NORTHWEST COLORADO...

CITY           SKY/WX    TMP DP  RH WIND       PRES   REMARKS
CRAIG          FAIR      29  19  66 CALM      30.24R
HAYDEN         FAIR      38  15  39 SE10      30.26R
MEEKER         FAIR      35  16  45 CALM      30.25S
RABBIT EARS PA FAIR      37   9  30 W9G18     30.40S
STEAMBOAT SPGS FAIR      35  16  45 CALM      30.27R
WALDEN         FAIR      30  12  47 SE8       30.29S WCI  23
$$

COZ006>008-011-180800-
...WEST CENTRAL VALLEYS...

CITY           SKY/WX    TMP DP  RH WIND       PRES   REMARKS
GRAND JUNCTION FAIR      46  13  26 SE12      30.20S
MONTROSE       FAIR      40  15  36 S12       30.27S
EAGLE          FAIR      33  15  47 CALM      30.31S
RIFLE          FAIR      38  17  42 CALM      30.25S
DELTA          FAIR      40  13  32 E3        30.24S
NUCLA          FAIR      41   5  22 E8        30.29S
$$

COZ017>023-064>068-180800-
...SOUTHWEST COLORADO...

CITY           SKY/WX    TMP DP  RH WIND       PRES   REMARKS
DURANGO        FAIR      38  16  40 N7        30.29F
CORTEZ         FAIR      34  16  47 NE3       30.27R
PAGOSA SPRINGS FAIR      36  15  42 CALM      30.34F
TELLURIDE      NOT AVBL
WOLF CREEK PAS FAIR      36   5  27 SW13      30.58S
$$

COZ009-010-012-014-032>034-037-058>063-180800-
...CENTRAL COLORADO...

CITY           SKY/WX    TMP DP  RH WIND       PRES   REMARKS
ASPEN          FAIR      32  15  49 SW7       30.32F WCI  26
BUENA VISTA    FAIR      38  12  34 W5        30.32S
COPPER MTN     FAIR      43  -4  14 W9        30.51F
BERTHOUD PASS  FAIR      34  27  75 NW25G38   30.49S WCI  21
COTTONWOOD PAS FAIR      54  -8   8 SW7G17    30.40S
GUNNISON       FAIR      28  11  48 CALM      30.38S
KREMMLING      FAIR      32  19  59 CALM      30.32R
LEADVILLE      FAIR      27   6  41 SE3       30.39F
SALIDA         NOT AVBL
SUNLIGHT       FAIR      36   0  21 SW8       30.48F
WILKERSON PASS FAIR      41   1  19 SW13G18   30.48S
$$

COZ069>075-180800-
...SAN LUIS VALLEY/SANGRE DE CRISTO MOUNTAINS...

CITY           SKY/WX    TMP DP  RH WIND       PRES   REMARKS
ALAMOSA        FAIR      32  15  49 E3        30.31S
DEL NORTE      FAIR      42  15  33 W6        30.33F
LA VETA PASS   FAIR      43  10  26 SW26      30.51F
SAGUACHE       FAIR      37   9  30 NW15      30.33S
$$

COZ035-036-038>040-180800-
...NORTHERN COLORADO FRONT RANGE...

CITY           SKY/WX    TMP DP  RH WIND       PRES   REMARKS
DENVER INTL AP FAIR      54  18  24 S13       30.07F
DMNS CITY PARK   N/A     53  19  26 SE7G13    30.07F
AURORA         PTCLDY    49  19  29 S7        30.09F
FRONT RANGE AP FAIR      54  21  28 S10G18    30.09S
ERIE MUNI ARPT FAIR      48  25  41 CALM      30.10F
BOULDER MUN AP FAIR      55  21  26 CALM      30.05F
CENTENNIAL     FAIR      52  16  24 S7        30.10F
BROOMFIELD     FAIR      57  18  21 CALM      30.09F
FORT COLLINS   FAIR      47  37  68 CALM      30.05S
LONGMONT       FAIR      54  25  31 S3        30.06F
$$

COZ041-046-047-076>085-087-088-180800-
...PIKES PEAK/PALMER DIVIDE AND SOUTHERN FOOTHILLS...

CITY           SKY/WX    TMP DP  RH WIND       PRES   REMARKS
COLO. SPRINGS  FAIR      42  23  46 N8        30.17F
A. F. ACADEMY  FAIR      37  19  47 N10       30.18S
SCHRIEVER AFB  FAIR      46  20  35 CALM      30.17S
CHEYENNE MTN   FAIR      55  11  17 NW6       30.14F
ELLICOTT       FAIR     N/A N/A N/A CALM      30.15F
FALCON         FAIR      42  18  38 W8        30.20F
FORT CARSON    FAIR      45  19  35 NW10      30.14F
LIMON          FAIR      32  27  81 N6        30.11F WCI  26
MONUMENT HILL  FAIR      46  18  31 SW9       30.20S
CANON CITY     CLEAR     54  19  26 W12       30.13S
WALSENBURG     FAIR      50  16  25 W7        30.16S
TRINIDAD       FAIR      47  24  40 NW14      30.14R
$$

COZ042>045-048>051-090-091-180800-
...NORTHEAST COLORADO...

CITY           SKY/WX    TMP DP  RH WIND       PRES   REMARKS
GREELEY ARPT   FAIR      38  31  76 NW6       30.04F
AKRON          FAIR      56  22  26 SW17      30.02F
BURLINGTON     FAIR      49  36  61 W10       30.04S
WRAY           FAIR      50  28  43 W13       30.00S
YUMA           FAIR      45  28  53 SW9       30.00S
STERLING       FAIR      39  28  65 SW9       29.99S
HOLYOKE        FAIR      43  30  61 SW6       29.98F
FORT MORGAN    FAIR      44  22  41 W8        30.03F
$$

COZ086-089-092>099-180800-
...SOUTHEAST COLORADO...

CITY           SKY/WX    TMP DP  RH WIND       PRES   REMARKS
PUEBLO         FAIR      41  25  53 W6        30.09F
LA JUNTA       FAIR      48  32  53 W3        30.05S
LAMAR          FAIR      35  28  75 S3        30.02S
SPRINGFIELD      N/A     43  33  68 W6        30.05F
$$




USA.gov is the U.S. government's official web portal to all federal, state and local government web resources and services.